Time,TemperatureF,DewpointF,PressureIn,WindDirection,WindDirectionDegrees,WindSpeedMPH,WindSpeedGustMPH,Humidity,HourlyPrecipIn,Conditions,Clouds,dailyrainin,SoftwareType,DateUTC
2013-07-05 00:00:00,80.6,76.0,30.00,South,175,18.0,18.0,86,0.00,,,0.00,Wunderground v.1.15,2013-07-05 04:00:00,
2013-07-05 00:05:00,80.7,76.5,30.00,South,178,17.0,27.0,87,0.00,,,0.00,Wunderground v.1.15,2013-07-05 04:05:00,
2013-07-05 00:10:00,80.7,76.5,30.00,South,185,17.0,27.0,87,0.00,,,0.00,Wunderground v.1.15,2013-07-05 04:10:00,
2013-07-05 00:15:00,80.7,76.1,29.99,SSW,198,19.0,27.0,86,0.00,,,0.00,Wunderground v.1.15,2013-07-05 04:15:00,
2013-07-05 00:20:00,80.7,76.1,29.99,South,188,18.0,18.0,86,0.00,,,0.00,Wunderground v.1.15,2013-07-05 04:20:00,
2013-07-05 00:25:00,80.8,76.2,30.00,South,172,17.0,27.0,86,0.00,,,0.00,Wunderground v.1.15,2013-07-05 04:25:00,
2013-07-05 00:30:00,80.8,76.2,30.00,South,188,17.0,27.0,86,0.00,,,0.00,Wunderground v.1.15,2013-07-05 04:30:00,
2013-07-05 00:35:00,81.0,76.8,30.00,SSW,193,18.0,27.0,87,0.00,,,0.00,Wunderground v.1.15,2013-07-05 04:35:00,
2013-07-05 00:40:00,80.8,76.2,30.00,South,186,19.0,27.0,86,0.00,,,0.00,Wunderground v.1.15,2013-07-05 04:40:00,
2013-07-05 00:45:00,80.7,76.1,29.99,South,180,20.0,27.0,86,0.00,,,0.00,Wunderground v.1.15,2013-07-05 04:45:00,
2013-07-05 00:50:00,80.7,75.8,29.99,SSW,202,21.0,21.0,85,0.00,,,0.00,Wunderground v.1.15,2013-07-05 04:50:00,
2013-07-05 00:55:00,80.8,75.9,30.00,South,179,22.0,22.0,85,0.00,,,0.00,Wunderground v.1.15,2013-07-05 04:55:00,
2013-07-05 01:00:00,80.7,76.1,30.00,South,180,20.0,20.0,86,0.00,,,0.00,Wunderground v.1.15,2013-07-05 05:00:00,
2013-07-05 01:10:00,80.7,76.5,30.00,South,179,19.0,27.0,87,0.00,,,0.00,Wunderground v.1.15,2013-07-05 05:10:00,
2013-07-05 01:15:00,80.6,76.4,29.99,SSW,192,19.0,27.0,87,0.00,,,0.00,Wunderground v.1.15,2013-07-05 05:15:00,
2013-07-05 01:20:00,80.6,76.4,29.99,South,183,19.0,19.0,87,0.00,,,0.00,Wunderground v.1.15,2013-07-05 05:20:00,
2013-07-05 01:25:00,80.6,76.4,29.99,South,190,19.0,27.0,87,0.00,,,0.00,Wunderground v.1.15,2013-07-05 05:25:00,
2013-07-05 01:30:00,80.5,75.9,29.99,South,187,20.0,27.0,86,0.00,,,0.00,Wunderground v.1.15,2013-07-05 05:30:00,
2013-07-05 01:35:00,80.5,75.6,29.99,South,180,20.0,27.0,85,0.00,,,0.00,Wunderground v.1.15,2013-07-05 05:35:00,
2013-07-05 01:40:00,80.5,75.6,29.99,SSE,159,19.0,19.0,85,0.00,,,0.00,Wunderground v.1.15,2013-07-05 05:40:00,
2013-07-05 01:45:00,80.4,75.5,29.99,SSW,194,18.0,20.0,85,0.00,,,0.00,Wunderground v.1.15,2013-07-05 05:45:00,
2013-07-05 01:55:00,80.6,76.0,29.99,SSE,165,18.0,27.0,86,0.00,,,0.00,Wunderground v.1.15,2013-07-05 05:55:00,
2013-07-05 02:00:00,80.5,75.6,29.98,SSW,192,18.0,27.0,85,0.00,,,0.00,Wunderground v.1.15,2013-07-05 06:00:00,
2013-07-05 02:05:00,80.6,76.0,29.98,South,184,18.0,27.0,86,0.00,,,0.00,Wunderground v.1.15,2013-07-05 06:05:00,
2013-07-05 02:10:00,80.5,75.9,29.98,South,183,18.0,18.0,86,0.00,,,0.00,Wunderground v.1.15,2013-07-05 06:10:00,
2013-07-05 02:15:00,80.5,75.9,29.98,South,178,17.0,27.0,86,0.00,,,0.00,Wunderground v.1.15,2013-07-05 06:15:00,
2013-07-05 02:20:00,80.6,76.4,29.98,South,184,16.0,27.0,87,0.00,,,0.00,Wunderground v.1.15,2013-07-05 06:20:00,
2013-07-05 02:25:00,80.8,76.6,29.98,South,184,17.0,27.0,87,0.00,,,0.00,Wunderground v.1.15,2013-07-05 06:25:00,
2013-07-05 02:30:00,80.8,76.6,29.98,South,182,17.0,27.0,87,0.00,,,0.00,Wunderground v.1.15,2013-07-05 06:30:00,
2013-07-05 02:35:00,80.6,76.4,29.98,South,190,17.0,27.0,87,0.00,,,0.00,Wunderground v.1.15,2013-07-05 06:35:00,
2013-07-05 02:45:00,80.5,75.6,29.99,SSW,192,16.0,20.0,85,0.00,,,0.00,Wunderground v.1.15,2013-07-05 06:45:00,
2013-07-05 02:50:00,80.6,76.0,29.98,South,190,16.0,27.0,86,0.00,,,0.00,Wunderground v.1.15,2013-07-05 06:50:00,
2013-07-05 02:55:00,80.6,76.0,29.98,South,190,16.0,27.0,86,0.00,,,0.00,Wunderground v.1.15,2013-07-05 06:55:00,
2013-07-05 03:00:00,80.5,75.9,29.98,SSW,211,15.0,15.0,86,0.00,,,0.00,Wunderground v.1.15,2013-07-05 07:00:00,
2013-07-05 03:05:00,80.5,75.9,29.98,South,186,14.0,27.0,86,0.00,,,0.00,Wunderground v.1.15,2013-07-05 07:05:00,
2013-07-05 03:10:00,80.5,75.9,29.98,SSW,192,13.0,27.0,86,0.00,,,0.00,Wunderground v.1.15,2013-07-05 07:10:00,
2013-07-05 03:15:00,80.6,76.4,29.98,South,182,12.0,27.0,87,0.00,,,0.00,Wunderground v.1.15,2013-07-05 07:15:00,
2013-07-05 03:25:00,80.5,76.3,29.98,SSW,208,11.0,27.0,87,0.00,,,0.00,Wunderground v.1.15,2013-07-05 07:25:00,
2013-07-05 03:30:00,80.6,76.4,29.98,SSW,197,11.0,27.0,87,0.00,,,0.00,Wunderground v.1.15,2013-07-05 07:30:00,
2013-07-05 03:35:00,80.7,76.1,29.98,SSW,202,12.0,27.0,86,0.00,,,0.00,Wunderground v.1.15,2013-07-05 07:35:00,
2013-07-05 03:40:00,80.9,76.7,29.98,SSW,211,11.0,11.0,87,0.00,,,0.00,Wunderground v.1.15,2013-07-05 07:40:00,
2013-07-05 03:50:00,80.8,76.2,29.98,SSW,200,11.0,11.0,86,0.00,,,0.00,Wunderground v.1.15,2013-07-05 07:50:00,
2013-07-05 03:55:00,80.6,76.4,29.98,SSW,199,11.0,27.0,87,0.00,,,0.00,Wunderground v.1.15,2013-07-05 07:55:00,
2013-07-05 04:05:00,80.6,76.7,29.98,SSW,198,10.0,14.0,88,0.00,,,0.00,Wunderground v.1.15,2013-07-05 08:05:00,
2013-07-05 04:10:00,80.5,76.6,29.99,South,186,11.0,11.0,88,0.00,,,0.00,Wunderground v.1.15,2013-07-05 08:10:00,
2013-07-05 04:15:00,80.6,76.7,29.99,South,181,11.0,27.0,88,0.00,,,0.00,Wunderground v.1.15,2013-07-05 08:15:00,
2013-07-05 04:20:00,80.4,76.5,29.99,South,173,10.0,27.0,88,0.00,,,0.00,Wunderground v.1.15,2013-07-05 08:20:00,
2013-07-05 04:30:00,80.1,76.2,29.99,SSW,192,9.0,9.0,88,0.00,,,0.00,Wunderground v.1.15,2013-07-05 08:30:00,
2013-07-05 04:40:00,80.2,76.7,29.99,South,187,8.0,8.0,89,0.00,,,0.00,Wunderground v.1.15,2013-07-05 08:40:00,
2013-07-05 04:45:00,80.1,76.6,29.99,South,180,8.0,27.0,89,0.00,,,0.00,Wunderground v.1.15,2013-07-05 08:45:00,
2013-07-05 04:50:00,80.0,76.5,29.98,South,176,9.0,27.0,89,0.00,,,0.00,Wunderground v.1.15,2013-07-05 08:50:00,
2013-07-05 04:55:00,80.0,76.5,29.98,South,180,9.0,27.0,89,0.00,,,0.00,Wunderground v.1.15,2013-07-05 08:55:00,
2013-07-05 05:05:00,80.2,76.7,29.98,SSW,198,9.0,27.0,89,0.00,,,0.00,Wunderground v.1.15,2013-07-05 09:05:00,
2013-07-05 05:10:00,80.2,76.3,29.98,South,189,9.0,9.0,88,0.00,,,0.00,Wunderground v.1.15,2013-07-05 09:10:00,
2013-07-05 05:20:00,80.3,76.4,29.99,South,174,7.0,27.0,88,0.00,,,0.00,Wunderground v.1.15,2013-07-05 09:20:00,
2013-07-05 05:25:00,80.2,76.3,29.99,South,178,7.0,27.0,88,0.00,,,0.00,Wunderground v.1.15,2013-07-05 09:25:00,
2013-07-05 05:35:00,80.0,76.1,29.99,South,190,6.0,27.0,88,0.00,,,0.00,Wunderground v.1.15,2013-07-05 09:35:00,
2013-07-05 05:40:00,80.0,76.1,29.99,South,185,5.0,5.0,88,0.00,,,0.00,Wunderground v.1.15,2013-07-05 09:40:00,
2013-07-05 05:50:00,79.9,76.4,29.99,South,174,0.0,27.0,89,0.00,,,0.00,Wunderground v.1.15,2013-07-05 09:50:00,
2013-07-05 05:55:00,79.9,76.4,29.99,South,190,0.0,27.0,89,0.00,,,0.00,Wunderground v.1.15,2013-07-05 09:55:00,
2013-07-05 06:05:00,80.0,76.5,29.98,South,186,0.0,27.0,89,0.00,,,0.00,Wunderground v.1.15,2013-07-05 10:05:00,
2013-07-05 06:10:00,80.0,76.5,29.98,South,190,0.0,27.0,89,0.00,,,0.00,Wunderground v.1.15,2013-07-05 10:10:00,
2013-07-05 06:15:00,80.1,76.6,29.97,SSW,196,0.0,27.0,89,0.00,,,0.00,Wunderground v.1.15,2013-07-05 10:15:00,
2013-07-05 06:25:00,80.1,76.6,29.99,South,169,0.0,27.0,89,0.00,,,0.00,Wunderground v.1.15,2013-07-05 10:25:00,
2013-07-05 06:35:00,80.2,76.7,29.99,South,172,0.0,27.0,89,0.00,,,0.00,Wunderground v.1.15,2013-07-05 10:35:00,
2013-07-05 06:40:00,80.2,77.0,29.99,SE,142,2.0,27.0,90,0.00,,,0.00,Wunderground v.1.15,2013-07-05 10:40:00,
2013-07-05 06:50:00,79.7,76.8,29.99,East,101,6.0,27.0,91,0.00,,,0.00,Wunderground v.1.15,2013-07-05 10:50:00,
2013-07-05 06:55:00,79.6,76.7,29.99,SE,135,7.0,27.0,91,0.00,,,0.00,Wunderground v.1.15,2013-07-05 10:55:00,
2013-07-05 07:05:00,78.8,75.6,30.00,SSE,159,9.0,27.0,90,0.00,,,0.00,Wunderground v.1.15,2013-07-05 11:05:00,
2013-07-05 07:10:00,77.8,74.0,30.00,ESE,107,11.0,27.0,88,0.00,,,0.00,Wunderground v.1.15,2013-07-05 11:10:00,
2013-07-05 07:20:00,77.6,72.0,29.99,SE,126,9.0,9.0,83,0.00,,,0.00,Wunderground v.1.15,2013-07-05 11:20:00,
2013-07-05 07:30:00,77.9,71.2,29.99,SE,130,8.0,27.0,80,0.00,,,0.00,Wunderground v.1.15,2013-07-05 11:30:00,
2013-07-05 07:35:00,78.2,71.2,29.99,SE,134,9.0,27.0,79,0.00,,,0.00,Wunderground v.1.15,2013-07-05 11:35:00,
2013-07-05 07:40:00,78.7,72.4,29.99,SSE,160,10.0,10.0,81,0.00,,,0.00,Wunderground v.1.15,2013-07-05 11:40:00,
2013-07-05 07:50:00,78.5,72.9,30.00,SSE,158,10.0,27.0,83,0.00,,,0.00,Wunderground v.1.15,2013-07-05 11:50:00,
2013-07-05 07:55:00,78.1,74.3,30.00,SE,143,10.0,27.0,88,0.00,,,0.00,Wunderground v.1.15,2013-07-05 11:55:00,
2013-07-05 08:10:00,77.8,75.6,29.99,SE,130,8.0,27.0,93,0.00,,,0.00,Wunderground v.1.15,2013-07-05 12:10:00,
2013-07-05 08:20:00,77.8,75.9,30.00,SE,130,9.0,9.0,94,0.00,,,0.00,Wunderground v.1.15,2013-07-05 12:20:00,
2013-07-05 08:25:00,77.8,75.9,30.00,SE,133,8.0,27.0,94,0.00,,,0.00,Wunderground v.1.15,2013-07-05 12:25:00,
2013-07-05 08:50:00,77.0,75.1,30.01,East,99,2.0,27.0,94,0.00,,,0.00,Wunderground v.1.15,2013-07-05 12:50:00,
2013-07-05 08:55:00,77.1,74.9,30.02,ESE,109,5.0,27.0,93,0.00,,,0.00,Wunderground v.1.15,2013-07-05 12:55:00,
2013-07-05 09:00:00,77.3,75.4,30.01,East,101,6.0,27.0,94,0.00,,,0.00,Wunderground v.1.15,2013-07-05 13:00:00,
2013-07-05 09:05:00,77.3,75.4,30.01,ESE,103,8.0,27.0,94,0.00,,,0.00,Wunderground v.1.15,2013-07-05 13:05:00,
2013-07-05 09:10:00,77.4,75.5,30.01,ESE,105,9.0,27.0,94,0.00,,,0.00,Wunderground v.1.15,2013-07-05 13:10:00,
2013-07-05 09:20:00,77.3,75.4,30.02,East,96,12.0,12.0,94,0.00,,,0.00,Wunderground v.1.15,2013-07-05 13:20:00,
2013-07-05 09:25:00,77.3,75.4,30.02,ESE,103,12.0,13.0,94,0.00,,,0.00,Wunderground v.1.15,2013-07-05 13:25:00,
2013-07-05 09:35:00,77.6,75.4,30.02,ESE,109,16.0,27.0,93,0.00,,,0.00,Wunderground v.1.15,2013-07-05 13:35:00,
2013-07-05 09:40:00,77.5,75.3,30.02,ESE,118,18.0,18.0,93,0.00,,,0.00,Wunderground v.1.15,2013-07-05 13:40:00,
2013-07-05 09:50:00,77.1,75.2,30.02,SE,127,21.0,21.0,94,0.00,,,0.00,Wunderground v.1.15,2013-07-05 13:50:00,
2013-07-05 09:55:00,76.7,74.5,30.03,South,176,21.0,23.0,93,0.00,,,0.00,Wunderground v.1.15,2013-07-05 13:55:00,
2013-07-05 10:05:00,76.6,74.7,30.04,SSE,161,18.0,27.0,94,0.00,,,0.00,Wunderground v.1.15,2013-07-05 14:05:00,
2013-07-05 10:10:00,76.2,74.3,30.03,South,175,15.0,15.0,94,0.00,,,0.00,Wunderground v.1.15,2013-07-05 14:10:00,
2013-07-05 10:20:00,76.0,74.5,30.03,SSE,159,16.0,27.0,95,0.00,,,0.00,Wunderground v.1.15,2013-07-05 14:20:00,
2013-07-05 10:25:00,75.8,74.6,30.03,South,173,17.0,27.0,96,0.00,,,0.00,Wunderground v.1.15,2013-07-05 14:25:00,
2013-07-05 10:35:00,75.8,74.6,30.03,SE,139,14.0,18.0,96,0.00,,,0.00,Wunderground v.1.15,2013-07-05 14:35:00,
2013-07-05 10:45:00,75.7,74.2,30.03,SSE,165,17.0,27.0,95,0.00,,,0.00,Wunderground v.1.15,2013-07-05 14:45:00,
2013-07-05 10:50:00,75.9,74.7,30.03,SSE,159,17.0,17.0,96,0.00,,,0.00,Wunderground v.1.15,2013-07-05 14:50:00,
2013-07-05 10:55:00,76.0,74.8,30.03,SE,145,15.0,27.0,96,0.00,,,0.00,Wunderground v.1.15,2013-07-05 14:55:00,
2013-07-05 11:05:00,75.5,74.0,30.03,South,185,11.0,27.0,95,0.00,,,0.00,Wunderground v.1.15,2013-07-05 15:05:00,
2013-07-05 11:10:00,75.4,73.9,30.04,SSW,193,11.0,11.0,95,0.00,,,0.00,Wunderground v.1.15,2013-07-05 15:10:00,
2013-07-05 11:20:00,75.2,74.0,30.05,South,175,8.0,8.0,96,0.00,,,0.00,Wunderground v.1.15,2013-07-05 15:20:00,
2013-07-05 11:25:00,75.2,74.0,30.05,SSE,155,7.0,27.0,96,0.00,,,0.00,Wunderground v.1.15,2013-07-05 15:25:00,
2013-07-05 11:35:00,75.3,74.1,30.06,SSE,150,7.0,27.0,96,0.00,,,0.00,Wunderground v.1.15,2013-07-05 15:35:00,
2013-07-05 11:40:00,75.3,74.1,30.06,SSE,160,9.0,27.0,96,0.00,,,0.00,Wunderground v.1.15,2013-07-05 15:40:00,
2013-07-05 11:50:00,75.4,73.9,30.07,South,174,11.0,27.0,95,0.00,,,0.00,Wunderground v.1.15,2013-07-05 15:50:00,
2013-07-05 11:55:00,75.0,73.8,30.07,South,173,11.0,27.0,96,0.00,,,0.00,Wunderground v.1.15,2013-07-05 15:55:00,
2013-07-05 12:05:00,74.9,73.7,30.07,SSW,195,10.0,27.0,96,0.00,,,0.00,Wunderground v.1.15,2013-07-05 16:05:00,
2013-07-05 12:10:00,74.9,73.7,30.07,South,181,9.0,27.0,96,0.00,,,0.00,Wunderground v.1.15,2013-07-05 16:10:00,
2013-07-05 12:15:00,74.9,73.7,30.08,SSE,165,9.0,27.0,96,0.00,,,0.00,Wunderground v.1.15,2013-07-05 16:15:00,
2013-07-05 12:20:00,74.9,73.7,30.08,South,176,10.0,27.0,96,0.00,,,0.00,Wunderground v.1.15,2013-07-05 16:20:00,
2013-07-05 12:25:00,74.8,73.3,30.08,South,170,11.0,27.0,95,0.00,,,0.00,Wunderground v.1.15,2013-07-05 16:25:00,
2013-07-05 12:35:00,75.0,73.5,30.07,South,175,10.0,27.0,95,0.00,,,0.00,Wunderground v.1.15,2013-07-05 16:35:00,
2013-07-05 12:40:00,75.2,74.0,30.07,South,180,9.0,9.0,96,0.00,,,0.00,Wunderground v.1.15,2013-07-05 16:40:00,
2013-07-05 12:50:00,75.0,73.8,30.07,South,177,11.0,27.0,96,0.00,,,0.00,Wunderground v.1.15,2013-07-05 16:50:00,
2013-07-05 13:00:00,75.1,73.9,30.08,SSW,196,11.0,11.0,96,0.00,,,0.00,Wunderground v.1.15,2013-07-05 17:00:00,
2013-07-05 13:05:00,75.0,73.8,30.08,SSE,159,11.0,27.0,96,0.00,,,0.00,Wunderground v.1.15,2013-07-05 17:05:00,
2013-07-05 13:15:00,75.0,73.8,30.08,South,179,10.0,11.0,96,0.00,,,0.00,Wunderground v.1.15,2013-07-05 17:15:00,
2013-07-05 13:25:00,75.6,74.4,30.09,SSE,162,12.0,16.0,96,0.00,,,0.00,Wunderground v.1.15,2013-07-05 17:25:00,
2013-07-05 13:30:00,75.6,74.1,30.09,South,174,12.0,27.0,95,0.00,,,0.00,Wunderground v.1.15,2013-07-05 17:30:00,
2013-07-05 13:35:00,75.8,74.6,30.09,SSE,150,12.0,27.0,96,0.00,,,0.00,Wunderground v.1.15,2013-07-05 17:35:00,
2013-07-05 13:45:00,74.8,73.0,30.09,SSE,167,11.0,14.0,94,0.00,,,0.00,Wunderground v.1.15,2013-07-05 17:45:00,
2013-07-05 13:50:00,74.8,73.3,30.09,SSE,166,11.0,27.0,95,0.00,,,0.00,Wunderground v.1.15,2013-07-05 17:50:00,
2013-07-05 14:00:00,75.0,73.5,30.09,South,175,11.0,11.0,95,0.00,,,0.00,Wunderground v.1.15,2013-07-05 18:00:00,
2013-07-05 14:05:00,75.7,74.5,30.09,SSW,194,11.0,27.0,96,0.00,,,0.00,Wunderground v.1.15,2013-07-05 18:05:00,
2013-07-05 14:10:00,75.5,74.0,30.09,SSW,205,11.0,27.0,95,0.00,,,0.00,Wunderground v.1.15,2013-07-05 18:10:00,
2013-07-05 14:20:00,75.5,74.0,30.09,SSW,209,14.0,14.0,95,0.00,,,0.00,Wunderground v.1.15,2013-07-05 18:20:00,
2013-07-05 14:25:00,75.3,73.8,30.09,SSW,205,14.0,17.0,95,0.00,,,0.00,Wunderground v.1.15,2013-07-05 18:25:00,
2013-07-05 14:30:00,74.8,73.0,30.09,SSW,205,14.0,27.0,94,0.00,,,0.00,Wunderground v.1.15,2013-07-05 18:30:00,
2013-07-05 14:35:00,74.9,73.4,30.09,SSW,210,13.0,27.0,95,0.00,,,0.00,Wunderground v.1.15,2013-07-05 18:35:00,
2013-07-05 14:45:00,74.9,73.1,30.09,SSW,200,12.0,27.0,94,0.00,,,0.00,Wunderground v.1.15,2013-07-05 18:45:00,
2013-07-05 14:50:00,74.9,73.1,30.09,SSW,202,14.0,27.0,94,0.00,,,0.00,Wunderground v.1.15,2013-07-05 18:50:00,
2013-07-05 14:55:00,75.0,73.2,30.09,SSW,198,14.0,27.0,94,0.00,,,0.00,Wunderground v.1.15,2013-07-05 18:55:00,
2013-07-05 15:05:00,74.9,73.1,30.09,SSW,200,13.0,27.0,94,0.00,,,0.00,Wunderground v.1.15,2013-07-05 19:05:00,
2013-07-05 15:10:00,74.9,73.4,30.08,SSW,209,12.0,12.0,95,0.00,,,0.00,Wunderground v.1.15,2013-07-05 19:10:00,
2013-07-05 15:20:00,74.3,72.5,30.08,WSW,242,9.0,9.0,94,0.00,,,0.00,Wunderground v.1.15,2013-07-05 19:20:00,
2013-07-05 15:25:00,74.1,72.3,30.07,WSW,238,7.0,27.0,94,0.00,,,0.00,Wunderground v.1.15,2013-07-05 19:25:00,
2013-07-05 15:35:00,74.3,72.5,30.06,SW,236,7.0,7.0,94,0.00,,,0.00,Wunderground v.1.15,2013-07-05 19:35:00,
2013-07-05 15:40:00,74.3,72.5,30.06,WSW,242,7.0,7.0,94,0.00,,,0.00,Wunderground v.1.15,2013-07-05 19:40:00,
2013-07-05 15:50:00,74.1,72.3,30.05,WSW,248,3.0,3.0,94,0.00,,,0.00,Wunderground v.1.15,2013-07-05 19:50:00,
2013-07-05 15:55:00,74.2,72.4,30.05,SW,228,1.0,5.0,94,0.00,,,0.00,Wunderground v.1.15,2013-07-05 19:55:00,
2013-07-05 16:00:00,74.2,72.4,30.04,SSW,208,2.0,27.0,94,0.00,,,0.00,Wunderground v.1.15,2013-07-05 20:00:00,
2013-07-05 16:10:00,74.3,72.1,30.04,SSW,207,6.0,27.0,93,0.00,,,0.00,Wunderground v.1.15,2013-07-05 20:10:00,
2013-07-05 16:15:00,74.5,72.3,30.04,SSW,207,7.0,27.0,93,0.00,,,0.00,Wunderground v.1.15,2013-07-05 20:15:00,
2013-07-05 16:20:00,74.7,72.2,30.04,SSW,205,8.0,27.0,92,0.00,,,0.00,Wunderground v.1.15,2013-07-05 20:20:00,
2013-07-05 16:30:00,75.3,72.5,30.04,SSW,211,8.0,8.0,91,0.00,,,0.00,Wunderground v.1.15,2013-07-05 20:30:00,
2013-07-05 16:35:00,75.6,72.8,30.03,SSW,192,7.0,27.0,91,0.00,,,0.00,Wunderground v.1.15,2013-07-05 20:35:00,
2013-07-05 16:40:00,75.7,72.9,30.03,SSW,198,7.0,27.0,91,0.00,,,0.00,Wunderground v.1.15,2013-07-05 20:40:00,
2013-07-05 16:50:00,76.0,72.9,30.03,SSW,196,7.0,27.0,90,0.00,,,0.00,Wunderground v.1.15,2013-07-05 20:50:00,
2013-07-05 16:55:00,76.2,73.1,30.03,SSW,210,7.0,27.0,90,0.00,,,0.00,Wunderground v.1.15,2013-07-05 20:55:00,
2013-07-05 17:05:00,76.2,73.4,30.03,SW,221,5.0,7.0,91,0.00,,,0.00,Wunderground v.1.15,2013-07-05 21:05:00,
2013-07-05 17:10:00,76.2,73.4,30.03,SSW,196,4.0,27.0,91,0.00,,,0.00,Wunderground v.1.15,2013-07-05 21:10:00,
2013-07-05 17:20:00,76.2,73.7,30.03,South,181,8.0,8.0,92,0.00,,,0.00,Wunderground v.1.15,2013-07-05 21:20:00,
2013-07-05 17:25:00,76.2,73.7,30.02,SSW,207,8.0,27.0,92,0.00,,,0.00,Wunderground v.1.15,2013-07-05 21:25:00,
2013-07-05 17:35:00,76.1,73.6,30.02,South,190,8.0,27.0,92,0.00,,,0.00,Wunderground v.1.15,2013-07-05 21:35:00,
2013-07-05 17:40:00,76.1,73.9,30.02,South,179,8.0,27.0,93,0.00,,,0.00,Wunderground v.1.15,2013-07-05 21:40:00,
2013-07-05 17:50:00,75.9,73.7,30.02,South,182,9.0,27.0,93,0.00,,,0.00,Wunderground v.1.15,2013-07-05 21:50:00,
2013-07-05 17:55:00,75.7,73.5,30.03,South,186,9.0,27.0,93,0.00,,,0.00,Wunderground v.1.15,2013-07-05 21:55:00,
2013-07-05 18:00:00,75.6,73.1,30.02,South,169,10.0,27.0,92,0.00,,,0.00,Wunderground v.1.15,2013-07-05 22:00:00,
2013-07-05 18:05:00,75.6,72.5,30.02,South,178,10.0,27.0,90,0.00,,,0.00,Wunderground v.1.15,2013-07-05 22:05:00,
2013-07-05 18:15:00,76.2,72.7,30.02,SE,146,11.0,11.0,89,0.00,,,0.00,Wunderground v.1.15,2013-07-05 22:15:00,
2013-07-05 18:20:00,76.3,72.5,30.02,SSE,157,12.0,27.0,88,0.00,,,0.00,Wunderground v.1.15,2013-07-05 22:20:00,
2013-07-05 18:25:00,76.7,73.2,30.02,SE,129,13.0,27.0,89,0.00,,,0.00,Wunderground v.1.15,2013-07-05 22:25:00,
2013-07-05 18:35:00,76.4,73.2,30.02,ESE,120,14.0,27.0,90,0.00,,,0.00,Wunderground v.1.15,2013-07-05 22:35:00,
2013-07-05 18:40:00,76.4,73.2,30.02,ESE,111,14.0,27.0,90,0.00,,,0.00,Wunderground v.1.15,2013-07-05 22:40:00,
2013-07-05 18:50:00,76.3,72.5,30.01,ESE,111,18.0,18.0,88,0.00,,,0.00,Wunderground v.1.15,2013-07-05 22:50:00,
2013-07-05 18:55:00,76.4,72.2,30.01,SE,126,18.0,27.0,87,0.00,,,0.00,Wunderground v.1.15,2013-07-05 22:55:00,
2013-07-05 19:05:00,76.9,72.4,30.01,SE,133,18.0,27.0,86,0.00,,,0.00,Wunderground v.1.15,2013-07-05 23:05:00,
2013-07-05 19:10:00,76.5,72.3,30.01,SE,128,19.0,27.0,87,0.00,,,0.00,Wunderground v.1.15,2013-07-05 23:10:00,
2013-07-05 19:20:00,76.2,73.1,30.02,SE,125,19.0,27.0,90,0.00,,,0.00,Wunderground v.1.15,2013-07-05 23:20:00,
2013-07-05 19:25:00,76.0,72.9,30.02,SE,132,19.0,27.0,90,0.00,,,0.00,Wunderground v.1.15,2013-07-05 23:25:00,
2013-07-05 19:35:00,75.9,73.4,30.02,SE,126,21.0,27.0,92,0.00,,,0.00,Wunderground v.1.15,2013-07-05 23:35:00,
2013-07-05 19:40:00,75.5,72.7,30.03,SE,135,23.0,23.0,91,0.00,,,0.00,Wunderground v.1.15,2013-07-05 23:40:00,
2013-07-05 19:50:00,75.6,73.1,30.02,ESE,122,23.0,28.0,92,0.00,,,0.00,Wunderground v.1.15,2013-07-05 23:50:00,
2013-07-05 19:55:00,75.7,73.5,30.02,East,101,23.0,28.0,93,0.00,,,0.00,Wunderground v.1.15,2013-07-05 23:55:00,
2013-07-05 20:00:00,75.7,73.5,30.02,SE,132,23.0,23.0,93,0.00,,,0.00,Wunderground v.1.15,2013-07-06 00:00:00,
2013-07-05 20:05:00,75.7,73.5,30.02,ESE,120,20.0,27.0,93,0.00,,,0.00,Wunderground v.1.15,2013-07-06 00:05:00,
2013-07-05 20:15:00,75.7,73.5,30.02,SE,141,19.0,27.0,93,0.00,,,0.00,Wunderground v.1.15,2013-07-06 00:15:00,
2013-07-05 20:20:00,75.4,73.2,30.02,SE,132,19.0,19.0,93,0.00,,,0.00,Wunderground v.1.15,2013-07-06 00:20:00,
2013-07-05 20:25:00,75.4,73.2,30.01,SE,128,20.0,20.0,93,0.00,,,0.00,Wunderground v.1.15,2013-07-06 00:25:00,
2013-07-05 20:35:00,75.6,73.4,30.01,South,178,21.0,27.0,93,0.00,,,0.00,Wunderground v.1.15,2013-07-06 00:35:00,
2013-07-05 20:40:00,75.7,73.5,30.01,SE,141,22.0,22.0,93,0.00,,,0.00,Wunderground v.1.15,2013-07-06 00:40:00,
2013-07-05 20:50:00,75.7,73.2,30.01,SE,144,21.0,21.0,92,0.00,,,0.00,Wunderground v.1.15,2013-07-06 00:50:00,
2013-07-05 20:55:00,75.7,73.2,30.00,SE,125,22.0,22.0,92,0.00,,,0.00,Wunderground v.1.15,2013-07-06 00:55:00,
2013-07-05 21:05:00,75.8,73.0,30.00,SE,144,21.0,27.0,91,0.00,,,0.00,Wunderground v.1.15,2013-07-06 01:05:00,
2013-07-05 21:10:00,75.9,72.8,30.00,SE,134,21.0,27.0,90,0.00,,,0.00,Wunderground v.1.15,2013-07-06 01:10:00,
2013-07-05 21:20:00,75.9,72.8,30.00,SE,144,21.0,21.0,90,0.00,,,0.00,Wunderground v.1.15,2013-07-06 01:20:00,
2013-07-05 21:25:00,75.8,73.0,30.00,SE,129,20.0,22.0,91,0.00,,,0.00,Wunderground v.1.15,2013-07-06 01:25:00,
2013-07-05 21:35:00,75.9,73.1,30.00,SE,145,19.0,21.0,91,0.00,,,0.00,Wunderground v.1.15,2013-07-06 01:35:00,
2013-07-05 21:40:00,75.8,72.3,30.00,SSE,167,18.0,27.0,89,0.00,,,0.00,Wunderground v.1.15,2013-07-06 01:40:00,
2013-07-05 21:45:00,75.7,71.6,30.00,SSE,148,20.0,27.0,87,0.00,,,0.00,Wunderground v.1.15,2013-07-06 01:45:00,
2013-07-05 21:50:00,75.9,72.1,29.99,SE,132,19.0,27.0,88,0.00,,,0.00,Wunderground v.1.15,2013-07-06 01:50:00,
2013-07-05 22:00:00,76.0,72.2,29.99,SE,140,19.0,27.0,88,0.00,,,0.00,Wunderground v.1.15,2013-07-06 02:00:00,
2013-07-05 22:05:00,76.0,72.5,29.99,ESE,123,20.0,27.0,89,0.00,,,0.00,Wunderground v.1.15,2013-07-06 02:05:00,
2013-07-05 22:15:00,76.1,72.6,29.99,SE,142,18.0,27.0,89,0.00,,,0.00,Wunderground v.1.15,2013-07-06 02:15:00,
2013-07-05 22:20:00,76.3,72.8,29.99,SE,129,19.0,19.0,89,0.00,,,0.00,Wunderground v.1.15,2013-07-06 02:20:00,
2013-07-05 22:25:00,76.3,72.8,29.99,SE,132,20.0,20.0,89,0.00,,,0.00,Wunderground v.1.15,2013-07-06 02:25:00,
2013-07-05 22:35:00,76.7,72.9,29.99,SE,129,18.0,27.0,88,0.00,,,0.00,Wunderground v.1.15,2013-07-06 02:35:00,
2013-07-05 22:40:00,76.7,72.9,29.98,ESE,117,18.0,27.0,88,0.00,,,0.00,Wunderground v.1.15,2013-07-06 02:40:00,
2013-07-05 22:50:00,76.6,73.1,29.98,SE,140,19.0,27.0,89,0.00,,,0.00,Wunderground v.1.15,2013-07-06 02:50:00,
2013-07-05 22:55:00,76.7,72.9,29.98,ESE,116,20.0,27.0,88,0.00,,,0.00,Wunderground v.1.15,2013-07-06 02:55:00,
2013-07-05 23:05:00,76.7,73.5,29.98,ESE,117,20.0,27.0,90,0.00,,,0.00,Wunderground v.1.15,2013-07-06 03:05:00,
2013-07-05 23:10:00,76.6,73.4,29.98,SE,125,21.0,28.0,90,0.00,,,0.00,Wunderground v.1.15,2013-07-06 03:10:00,
2013-07-05 23:20:00,76.8,73.6,29.97,SE,133,27.0,27.0,90,0.00,,,0.00,Wunderground v.1.15,2013-07-06 03:20:00,
2013-07-05 23:25:00,77.1,73.6,29.97,SE,135,27.0,27.0,89,0.00,,,0.00,Wunderground v.1.15,2013-07-06 03:25:00,
2013-07-05 23:30:00,77.4,73.6,29.98,SE,125,26.0,26.0,88,0.00,,,0.00,Wunderground v.1.15,2013-07-06 03:30:00,
2013-07-05 23:35:00,77.5,73.7,29.98,ESE,113,25.0,27.0,88,0.00,,,0.00,Wunderground v.1.15,2013-07-06 03:35:00,
2013-07-05 23:40:00,77.5,73.7,29.98,SE,130,24.0,27.0,88,0.00,,,0.00,Wunderground v.1.15,2013-07-06 03:40:00,
2013-07-05 23:50:00,77.7,73.2,29.99,SE,136,25.0,25.0,86,0.00,,,0.00,Wunderground v.1.15,2013-07-06 03:50:00,
2013-07-05 23:55:00,77.6,73.1,29.99,SE,130,25.0,28.0,86,0.00,,,0.00,Wunderground v.1.15,2013-07-06 03:55:00,